LTAILTAN

Guest
Details From LTAI - Antalya
To LTAN - KONYA
Flight Number -
Tags generated
Created
Modified
Stats Distance 107 nm / 198 km
Max Altitude 400 ft / 122 m
Waypoints 3
Social Downloads 2
Likes 0
Share VATSIM

Download

Looking for another format? Having issues loading an existing format? Contact us
Advertisement - Login to hide

Notes

Basic altitude profile: - Ascent Rate: 2500ft/min - Ascent Speed: 250kts - Cruise Altitude: 35000ft - Cruise Speed: 420kts - Descent Rate: 1500ft/min - Descent Speed: 250kts Options: - Use NATs: yes - Use PACOTS: yes - Use low airways: yes - Use high airways: yes

Route

LTAI AYT LTAN

ID Type Via Altitude Latitude Longitude Leg Dist Tot Dist Heading (true) Name
O LTAI APT - 0 ft / 0 m 36.89960˚ 30.79751˚ - 0 nm - Antalya
AYT VOR - 400 ft / 122 m 36.92139˚ 30.79694˚ 1 nm 1 nm 359° / 359° ANTALYA VOR-DME
O LTAN APT - 0 ft / 0 m 37.97900˚ 32.56185˚ 105 nm 106 nm 52° / 53° KONYA

Altitude Profile

Advertisement - Login to hide

LTAI

Details ICAO LTAI (AYT)
Name Antalya
Region Turkey
Timezone Europe/Istanbul (UTC+3.0)
Stats Elevation 177 ft / 54 m (AMSL)
Location 36.899598° 30.797507°
Runways 3
Magnetic Variation 5.071° E

METAR

LTAI 151620Z VRB01KT 9999 SCT030 13/11 Q1020 NOSIG

Decode

TAF

Not found

Departure Runways

ID Width Length Bearing (true) Bearing (mag) Surface Threshold Offset Overrun Length
18C 148 ft / 45 m 11,137 ft / 3,394 m 186.26° 181.19° Concrete 0 ft / 0 m 197 ft / 60 m
18L 148 ft / 45 m 11,180 ft / 3,408 m 186.28° 181.21° Concrete 0 ft / 0 m 197 ft / 60 m
18R 148 ft / 45 m 9,789 ft / 2,984 m 186.25° 181.18° Asphalt 0 ft / 0 m 984 ft / 300 m
36C 148 ft / 45 m 11,137 ft / 3,394 m 6.25° 1.18° Concrete 0 ft / 0 m 197 ft / 60 m
36L 148 ft / 45 m 9,789 ft / 2,984 m 6.25° 1.18° Asphalt 0 ft / 0 m 984 ft / 300 m
36R 148 ft / 45 m 11,180 ft / 3,408 m 6.28° 1.21° Concrete 0 ft / 0 m 197 ft / 60 m

LTAN

Details ICAO LTAN (KYA)
Name KONYA
Region Turkey
Timezone Europe/Istanbul (UTC+3.0)
Stats Elevation 3,381 ft / 1,031 m (AMSL)
Location 37.979000° 32.561847°
Runways 1
Magnetic Variation 5.345° E

METAR

LTAN 151550Z 31003KT 7000 NSC 04/01 Q1019 NOSIG

Decode

TAF

Not found

Destination Runways

ID Width Length Bearing (true) Bearing (mag) Surface Threshold Offset Overrun Length
01 148 ft / 45 m 11,008 ft / 3,355 m 16.74° 11.39° Asphalt 0 ft / 0 m 328 ft / 100 m
19 148 ft / 45 m 11,008 ft / 3,355 m 196.75° 191.40° Asphalt 0 ft / 0 m 328 ft / 100 m

Popular Alternatives